Regional Weather Roundup
Issued by NWS

Home | Current Version | Previous Version | Graphics & Text | Print | Product List | Glossary On
Versions: 1 2 3 4 5 6 7 8 9 10 11 12 13 14 15 16 17 18 19 20 21 22 23 24 25 26 27 28 29 30 31 32 33 34 35 36 37 38 39 40 41 42 43 44 45 46 47 48 49 50
335
ASUS45 KBOU 181707
RWRCO

WEATHER ROUNDUP FOR COLORADO
NATIONAL WEATHER SERVICE DENVER/BOULDER CO
1100 AM MDT MON SEP 18 2017

NOTE: "FAIR" INDICATES FEW OR NO CLOUDS BELOW 12000 FEET WITH NO
SIGNIFICANT WEATHER AND/OR OBSTRUCTIONS TO VISIBILITY.

COZ001>005-013-030-031-181800-
...NORTHWEST COLORADO...

CITY           SKY/WX    TMP DP  RH WIND       PRES   REMARKS
CRAIG          FAIR      67  36  31 VRB5      30.13F
HAYDEN         FAIR      62  36  37 E8        30.16F
MEEKER         FAIR      66  37  34 VRB3      30.14F
RABBIT EARS PA FAIR      48  28  46 W8        30.36R
STEAMBOAT SPGS FAIR      59  39  48 CALM      30.17F
WALDEN         FAIR      59  28  31 SW9G20    30.23S
$$

COZ006>008-011-181800-
...WEST CENTRAL VALLEYS...

CITY           SKY/WX    TMP DP  RH WIND       PRES   REMARKS
GRAND JUNCTION FAIR      68  40  35 S9        30.09F
MONTROSE       FAIR      67  45  45 E9        30.17S
EAGLE          FAIR      61  36  39 CALM      30.21F
RIFLE          FAIR      65  39  38 CALM      30.13F
DELTA          FAIR      69  42  37 MISG      30.14F
NUCLA          FAIR      68  37  32 CALM      30.19F
$$

COZ017>023-064>068-181800-
...SOUTHWEST COLORADO...

CITY           SKY/WX    TMP DP  RH WIND       PRES   REMARKS
DURANGO        FAIR      63  41  44 E8        30.24S
CORTEZ         FAIR      67  45  45 VRB3      30.18S
PAGOSA SPRINGS FAIR      60  37  42 S6        30.30S
TELLURIDE      FAIR      59  32  36 E7        30.34S
WOLF CREEK PAS FAIR      41  32  70 S10G22    30.54S
$$

COZ009-010-012-014-032>034-037-058>063-181800-
...CENTRAL COLORADO...

CITY           SKY/WX    TMP DP  RH WIND       PRES   REMARKS
ASPEN          FAIR      61  35  37 CALM      30.23S
BUENA VISTA    FAIR      58  36  44 E6        30.27F
COPPER MTN     FAIR      46  27  46 SW6G17    30.46R
BERTHOUD PASS  FAIR      36  30  80 W20G33    30.45S
COTTONWOOD PAS PTSUNNY   55  36  47 E3        30.37S
GUNNISON       FAIR      53  41  63 W3        30.30F
KREMMLING      FAIR      63  34  34 SE5       30.23F
LEADVILLE      FAIR      50  31  48 CALM      30.34F
MONARCH PASS   FAIR      41  32  70 SW24G33   30.57S
SALIDA         FAIR      61  39  44 CALM      30.32F
SUNLIGHT       PTSUNNY   46  30  53 SW10G23   30.42S
WILKERSON PASS FAIR      46  32  57 SW9       30.45S
$$

COZ069>075-181800-
...SAN LUIS VALLEY/SANGRE DE CRISTO MOUNTAINS...

CITY           SKY/WX    TMP DP  RH WIND       PRES   REMARKS
ALAMOSA        FAIR      56  45  66 E6        30.28F
DEL NORTE      FAIR      55  42  60 E8        30.31S
LA VETA PASS   FAIR      54  41  62 S15G28    30.51S
SAGUACHE       FAIR      54  43  66 S5        30.31S
$$

COZ035-036-038>040-181800-
...NORTHERN COLORADO FRONT RANGE...

CITY           SKY/WX    TMP DP  RH WIND       PRES   REMARKS
DENVER INTL AP FAIR      73  35  25 SW7       30.08F
DMNS CITY PARK   N/A     73  36  25 SE8       30.07F
AURORA         NOT AVBL
FRONT RANGE AP SUNNY     75  32  20 SW10      30.10F
ERIE MUNI ARPT FAIR      74  33  22 S6        30.10F
BOULDER MUN AP FAIR      75  32  20 SE6       30.05F
CENTENNIAL     FAIR      69  32  25 SW6       30.11F
BROOMFIELD     MOSUNNY   73  32  21 E5        30.09F
FORT COLLINS   FAIR      72  43  35 S8        30.05F
LONGMONT       FAIR      77  38  24 SE5       30.06F
$$

COZ041-046-047-076>085-087-088-181800-
...PIKES PEAK/PALMER DIVIDE AND SOUTHERN FOOTHILLS...

CITY           SKY/WX    TMP DP  RH WIND       PRES   REMARKS
COLO. SPRINGS  FAIR      72  34  24 SE8       30.15F
A. F. ACADEMY  NOT AVBL
SCHRIEVER AFB  NOT AVBL
CHEYENNE MTN   NOT AVBL
ELLICOTT       NOT AVBL
FALCON         FAIR      70  25  18 W8G20     30.19F
FORT CARSON    NOT AVBL
LIMON            N/A    N/A N/A N/A MISG      30.09F
MONUMENT HILL  FAIR      64  30  27 W8        30.20F
CANON CITY     SUNNY     75  43  31 W13G18    30.10F
WALSENBURG     FAIR      75  37  25 SW8       30.15F
TRINIDAD       FAIR      72  50  45 VRB3      30.14S
$$

COZ042>045-048>051-090-091-181800-
...NORTHEAST COLORADO...

CITY           SKY/WX    TMP DP  RH WIND       PRES   REMARKS
GREELEY ARPT   FAIR      69  48  47 SW6       30.05F
AKRON          NOT AVBL
BURLINGTON     FAIR      72  54  53 NW10      30.03F
WRAY           FAIR      77  50  38 NW5       30.00F
YUMA           FAIR      73  27  17 NW8       30.02S
STERLING       FAIR      70  55  60 SW5       30.01F
HOLYOKE        FAIR      79  46  31 SW3       30.00F
FORT MORGAN    FAIR      73  47  40 SW7       30.05F
$$

COZ086-089-092>099-181800-
...SOUTHEAST COLORADO...

CITY           SKY/WX    TMP DP  RH WIND       PRES   REMARKS
PUEBLO         FAIR      78  37  22 NW7G17    30.06F
LA JUNTA       FAIR      77  46  33 W8        30.05F
LAMAR          FAIR      76  49  38 W10       30.01F
SPRINGFIELD      N/A     75  56  51 W8G17     30.06F
$$




USA.gov is the U.S. government's official web portal to all federal, state and local government web resources and services.